Regional Weather Roundup
Issued by NWS

Home | Current Version | Previous Version | Text Only | Print | Product List | Glossary On
Versions: 1 2 3 4 5 6 7 8 9 10 11 12 13 14 15 16 17 18 19 20 21 22 23 24 25 26 27 28 29 30 31 32 33 34 35 36 37 38 39 40 41 42 43 44 45 46 47 48 49 50
000
ASUS44 KMEG 271210
RWRTN
TENNESSEE HOURLY STATE WEATHER ROUNDUP
NATIONAL WEATHER SERVICE MEMPHIS TN
700 AM CDT SAT MAY 27 2017

TNZ002-004-019-021-049-052-054-088>092-271300-
WEST TENNESSEE

CITY           SKY/WX    TMP DP  RH WIND       PRES   REMARKS
MEMPHIS INTL   PTSUNNY   76  71  85 SW8       29.92R
NWS MEMPHIS      N/A     75 N/A N/A MISG        N/A
JACKSON        PTSUNNY   74  70  87 S7        29.92R
DYERSBURG        N/A    N/A N/A N/A MISG        N/A
COVINGTON      CLOUDY    75  70  83 SW6       29.92R
UNION CITY     CLOUDY    72  68  88 S7        29.88S
BOLIVAR        MOSUNNY   72  68  88 S5        29.93R
PARIS          CLOUDY    72  68  88 SW6       29.91R
HUNTINGDON     CLOUDY    72  68  88 CALM      29.92R
LEXINGTON      CLOUDY    70  64  83 MISG      29.95R
SELMER         PTSUNNY   70  66  88 VRB5      29.95R
SAVANNAH       CLOUDY    72  64  78 S8        29.95R
$$

TNZ008-025-027-028-033-062-065-066-271300-
NORTH MIDDLE TENNESSEE

CITY           SKY/WX    TMP DP  RH WIND       PRES   REMARKS
NASHVILLE      CLOUDY    73  63  70 S8        29.95R
PORTLAND       CLOUDY    72  64  78 SW8       29.93R
CLARKSVILLE    CLOUDY    71  63  75 SW3       29.93R
SMYRNA         CLOUDY    71  64  78 VRB3      29.96R
COOKEVILLE     CLOUDY    70  64  83 SW6       29.97R
GALLATIN       CLOUDY    72  64  78 CALM      29.97R
CROSSVILLE     PTSUNNY   66  60  81 VRB5      30.02R
$$

TNZ061-075-076-078-094-096-097-271300-
SOUTH MIDDLE TENNESSEE

CITY           SKY/WX    TMP DP  RH WIND       PRES   REMARKS
FAYETTEVILLE   MOSUNNY   70  63  78 SW6       30.00R
TULLAHOMA      PTSUNNY   70  61  73 SW9       30.00R
WINCHESTER     CLOUDY    70  64  83 CALM        N/A
MCMINNVILLE    CLOUDY    72  64  78 SW5       29.99R
COLUMBIA       CLOUDY    72  63  73 SW8       29.95R
SHELBYVILLE    CLOUDY    72  64  78 S9        29.97R
$$

TNZ017-018-042-046-047-271300-
NORTHEAST TENNESSEE

CITY           SKY/WX    TMP DP  RH WIND       PRES   REMARKS
TRI CITIES     PTSUNNY   62  58  86 CALM      30.00S
ELIZABETHTON   MOSUNNY   63  59  88 CALM      30.00S
$$

TNZ012-013-036-069-073-074-271300-
CENTRAL EAST TENNESSEE

CITY           SKY/WX    TMP DP  RH WIND       PRES   REMARKS
KNOXVILLE      PTSUNNY   70  61  73 W3        29.96S
OAK RIDGE      PTSUNNY   69  62  78 CALM      29.99R
DOWNTOWN KNOXV PTSUNNY   68  66  94 CALM      29.97S
GATLINBURG     MOSUNNY   70  61  73 CALM      29.97S
MORRISTOWN     CLOUDY    68  63  83 CALM      29.98R
JACKSBORO      PTSUNNY   64  63  94 CALM      30.00R
$$

TNZ083-085-099-271300-
SOUTHEAST TENNESSEE

CITY           SKY/WX    TMP DP  RH WIND       PRES   REMARKS
CHATTANOOGA    PTSUNNY   69  63  81 S3        30.00R
$$

SKY/WX REPORTED AS FAIR MEANS FEW OR NO CLOUDS BELOW
12 THOUSAND FEET.




USA.gov is the U.S. government's official web portal to all federal, state and local government web resources and services.